Location: Huntsville
(41.2590°N, 111.7678°W)
Time: 19:38:21
(UTC+00:00)

Explorer 7 - Pass Details

Date: 22 June 2021
Orbit: 484 x 676 km, 50.3° (Epoch: 30 July)

Event Time Altitude Azimuth Distance (km) Brightness Sun altitude
Rises 06:24:23 0° 289° (WNW) 3,021 11.1 -23.6°
Reaches altitude 10° 06:27:05 10° 301° (WNW) 2,096 10.4 -23.7°
Maximum altitude 06:31:13 27° 360° (N) 1,259 9.3 -23.9°
Drops below altitude 10° 06:35:13 10° 58° (ENE) 2,027 9.9 -24.1°
Sets 06:37:48 0° 71° (ENE) 2,903 10.6 -24.2°
